Flag for United Kingdom Weather past 2 weeks in Weymouth, England, United Kingdom

Now
68 °F

Smoke.


Feels Like: 68 °F
Forecast: 61 / 70 °F
Wind: 8 mph from East

Location: Isle Of Portland

Current Time: Sep 19, 2014 at 7:01:52 PM

Latest Report: Sep 19, 2014 at 6:00 PM


Visibility: 6 mi

Pressure: 29.85 "Hg

Humidity: 80%

Dew point: 61 °F

Location of WeymouthLocation

Historic Weather in Weymouth — Graph

°F

Weymouth temperature yesterday

Maximum temperature yesterday: 69 °F (at 12:00 PM)
Minimum temperature yesterday: 61 °F (at 7:00 AM)
Average temperature yesterday: 64 °F

Past Weeks' High & Low Weather Summary

 TemperatureHumidityPressure
High72 °F (Sep 17, 3:00 PM)96% (Sep 6, 7:00 AM)30.29 "Hg (Sep 6, 7:00 AM)
Low55 °F (Sep 11, 7:00 AM)57% (Sep 11, 2:00 PM)29.73 "Hg (Sep 18, 6:00 AM)
Average62 °F82%30.03 "Hg
* Reported Sep 4 5:00 PM — Sep 19 5:00 PM, Weymouth, Weather by CustomWeather, © 2014

Note: Actual official high and low records may vary slightly from our data, if they occured in-between our weather recording intervals... More about our weather records

Advertising

Weymouth weather history for previous 24 hours

 ConditionsComfort  
Time TempWeatherWind HumidityBarometerVisibility
5:00 PM
Sep 19
68 °FSmoke.8 mph79%29.84 "Hg5 mi
4:00 PM69 °FMild.9 mph82%29.84 "Hg4 mi
3:00 PM67 °FSmoke.10 mph81%29.85 "Hg4 mi
2:00 PM67 °FSmoke.14 mph84%29.85 "Hg3 mi
1:00 PM65 °FSmoke.14 mph91%29.85 "Hg2 mi
12:00 PM65 °FSmoke.10 mph89%29.84 "Hg2 mi
11:00 AM65 °FSmoke.9 mph89%29.84 "Hg2 mi
10:00 AM65 °FSmoke.16 mph91%29.82 "Hg4 mi
9:00 AM63 °FFog.15 mph95%29.82 "Hg2 mi
8:00 AM63 °FMild.14 mph94%29.80 "Hg2 mi
7:00 AM63 °FRain showers. Cloudy.15 mph92%29.80 "Hg10 mi
6:00 AM64 °FSmoke.14 mph92%29.79 "Hg5 mi
5:00 AM63 °FMild.15 mph92%29.77 "Hg14 mi
4:00 AM64 °FMild.13 mph89%29.78 "Hg19 mi
3:00 AM64 °FMild.13 mph90%29.77 "Hg17 mi
2:00 AM64 °FFog.12 mph94%29.78 "Hg6 mi
1:00 AM64 °FSmoke.14 mph94%29.79 "Hg3 mi
12:00 AM64 °FMild.13 mph90%29.79 "Hg8 mi
11:00 PM
Sep 18
64 °FMild.10 mph95%29.79 "Hg9 mi
10:00 PM64 °FFog.13 mph95%29.78 "Hg2 mi
9:00 PM64 °FFog.13 mph95%29.78 "Hg2 mi
8:00 PM64 °FFog.13 mph94%29.78 "Hg2 mi
7:00 PM65 °FSmoke.12 mph92%29.76 "Hg2 mi
Weather by CustomWeather, © 2014

See weather overviewHow to use our weather pages